Overview Statistics Trail Chart Weather Telemetry Raw packets
 

This is the latest recevied weather packets stored in our database for station/object HB9FHL-13. If no packets are shown the sender has not sent any weather packets the latest 10 day(s).

<< 58 59 60 61 62 63 64 >>
Time Temp. Humidity Pressure Rain* Wind** Luminosity Snow
1788323895 17.22° C - 1024.9 hPa 0 mm - - -
1788323594 17.22° C - 1024 hPa 0 mm - - -
1788323294 17.22° C - 1024 hPa 0 mm - - -
1788322993 17.78° C - 1024.5 hPa 0 mm - - -
1788322693 17.22° C - 1023.5 hPa 0 mm - - -
1788322449 16.67° C - 1022.7 hPa 0 mm - - -
1788322392 16.67° C - 1022.7 hPa 0 mm - - -
1788322091 16.67° C - 1021.8 hPa 0 mm - - -
1788321790 16.67° C - 1025.2 hPa 0 mm - - -
1788321490 17.22° C - 1023.4 hPa 0 mm - - -
1788321189 17.78° C - 1023.3 hPa 0 mm - - -
1788320889 17.22° C - 1023.4 hPa 0 mm - - -
1788320588 17.22° C - 1024.3 hPa 0 mm - - -
1788320288 17.22° C - 1021.8 hPa 0 mm - - -
1788320051 17.22° C - 1022 hPa 0 mm - - -
1788319987 17.22° C - 1022 hPa 0 mm - - -
1788319687 17.78° C - 1024.1 hPa 0 mm - - -
1788319386 16.67° C - 1022.8 hPa 0 mm - - -
1788319086 17.22° C - 1022.4 hPa 0 mm - - -
1788318786 16.67° C - 1022.7 hPa 0 mm - - -
1788318487 17.78° C - 1022.7 hPa 0 mm - - -
1788318184 16.67° C - 1022.6 hPa 0 mm - - -
1788317882 17.22° C - 1022.4 hPa 0 mm - - -
1788317582 17.22° C - 1024.1 hPa 0 mm - - -
1788317281 16.67° C - 1022.3 hPa 0 mm - - -

* Rain since midnight (hover to see other rain measurements)
** Current wind speed in m/s (hover to see current wind gust speed)